This demonstration page uses our WeatherBlox Daily Observations layout. Learn more.

Left ArrowRight Arrow

41.55636, -103.73856

Hourly Observations for July 21, 2018

Temp ( °F °C ) Dew Point ( °F °C ) Humidity (%) Winds ( mph kmh ) Pressure ( in mb ) Visibility ( mi km ) Precip ( " mm )
12:58 am 00:58 Mostly Cloudy 73 23 67 19.7 82 82 SSE 17 28 29.98 1015 10 16 N/A
1:58 am 01:58 Mostly Cloudy 72 22.1 67 19.6 86 86 SSE 13 20 29.97 1015 10 16 N/A
2:58 am 02:58 Mostly Cloudy 71 21.7 67 19.7 88 88 SSE 14 22 29.98 1015 10 16 N/A
3:58 am 03:58 Cloudy 71 21.6 67 19.5 88 88 SSE 13 20 29.97 1015 10 16 N/A
4:58 am 04:58 Cloudy 69 20.8 66 19 90 90 SSE 10 17 29.98 1015 10 16 N/A
5:58 am 05:58 Cloudy 67 19.5 65 18.4 93 93 S 7 11 30.01 1016 8 13 N/A
6:58 am 06:58 Sunny 67 19.5 64 17.9 91 91 SSE 14 22 29.99 1016 10 16 N/A
7:58 am 07:58 Sunny 69 20.4 64 17.7 85 85 S 12 19 30.01 1016 10 16 N/A
8:58 am 08:58 Mostly Sunny 71 21.6 64 17.7 79 79 S 10 17 30.02 1017 10 16 N/A
9:58 am 09:58 Sunny 72 22.2 64 18 77 77 SSE 12 19 30.03 1017 10 16 N/A
10:58 am 10:58 Sunny 79 26.1 63 17.3 58 58 SSW 14 22 30.01 1016 10 16 N/A
11:58 am 11:58 Sunny 83 28.6 59 15.1 44 44 S 13 20 29.98 1015 10 16 N/A
12:58 pm 12:58 Sunny 86 29.8 57 14 38 38 SSE 15 24 29.95 1014 10 16 N/A
1:58 pm 13:58 Sunny 84 29 56 13.3 38 38 S 12 19 29.96 1015 10 16 N/A
2:58 pm 14:58 Sunny 85 29.7 56 13.1 36 36 SSE 20 31 29.95 1014 10 16 N/A
3:58 pm 15:58 Sunny 85 29.6 55 12.8 36 36 SE 18 30 29.92 1013 10 16 N/A
4:58 pm 16:58 Sunny 82 27.9 55 12.6 39 39 SSE 14 22 29.95 1014 10 16 N/A
5:58 pm 17:58 Mostly Cloudy 81 27.3 55 12.9 41 41 SE 12 19 29.94 1014 10 16 N/A
6:58 pm 18:58 Mostly Cloudy 71 21.5 58 14.4 64 64 ESE 10 17 29.99 1016 10 16 N/A
8:58 pm 20:58 Clear 70 20.9 58 14.7 68 68 WSW 10 17 29.98 1015 10 16 N/A
9:58 pm 21:58 Mostly Cloudy 69 20.6 61 15.9 75 75 S 10 17 29.97 1015 10 16 N/A
10:58 pm 22:58 Clear 66 18.9 60 15.3 80 80 SSW 9 15 29.98 1015 10 16 N/A
11:58 pm 23:58 Clear 65 18.6 60 15.3 81 81 SW 7 11 29.98 1015 10 16 N/A

Powered by AerisWeather